GW2742 Weather Reports


Display with metric or nautical units.
time (UTC)temp
F
wind
direction
speed
MPH
gust
MPH
rain 1hr
in
rain 24hr
in
rain mn
in
humidity
%
barometer
mb
20260902102525 55 0 0.0 2.0 0.00 0.00 0.00 76 1011.9
20260902102025 55 103 1.0 2.0 0.00 0.00 0.00 76 1012.0
20260902101550 55 103 1.0 2.0 0.00 0.00 0.00 75 1012.0
20260902101025 55 105 1.0 3.0 0.00 0.00 0.00 75 1011.9
20260902100526 55 0 0.0 3.0 0.00 0.00 0.00 74 1011.9
20260902100043 55 105 1.0 3.0 0.00 0.00 0.00 75 1011.9
20260902095523 55 0 0.0 1.0 0.00 0.00 0.00 75 1011.8
20260902095025 55 0 0.0 0.0 0.00 0.00 0.00 75 1011.9
20260902094543 56 0 0.0 0.0 0.00 0.00 0.00 74 1012.0
20260902094024 56 0 0.0 1.0 0.00 0.00 0.00 73 1012.1
20260902093524 56 0 0.0 1.0 0.00 0.00 0.00 73 1012.0
20260902093048 56 0 0.0 1.0 0.00 0.00 0.00 73 1012.2
20260902092524 56 0 0.0 3.0 0.00 0.00 0.00 73 1012.2
20260902092025 56 0 0.0 3.0 0.00 0.00 0.00 73 1012.2
20260902091544 56 105 1.0 3.0 0.00 0.00 0.00 73 1012.5
20260902091024 57 0 0.0 1.0 0.00 0.00 0.00 73 1012.3
20260902090531 57 0 0.0 0.0 0.00 0.00 0.00 72 1012.2
20260902090043 57 0 0.0 2.0 0.00 0.00 0.00 72 1012.3
20260902085525 57 0 0.0 2.0 0.00 0.00 0.00 72 1012.4
20260902085024 58 323 0.0 2.0 0.00 0.00 0.00 71 1012.4
20260902084545 58 0 0.0 1.0 0.00 0.00 0.00 71 1012.5
20260902084024 58 323 0.0 2.0 0.00 0.00 0.00 71 1012.5
20260902083525 58 0 0.0 2.0 0.00 0.00 0.00 71 1012.5
20260902083112 58 323 0.0 2.0 0.00 0.00 0.00 70 1012.4
20260902082525 58 0 0.0 2.0 0.00 0.00 0.00 71 1012.4
20260902082023 58 0 0.0 2.0 0.00 0.00 0.00 71 1012.4
20260902081547 58 0 0.0 2.0 0.00 0.00 0.00 70 1012.2
20260902081025 58 0 0.0 2.0 0.00 0.00 0.00 70 1012.4
20260902080524 58 332 1.0 3.0 0.00 0.00 0.00 70 1012.2
20260902080045 58 0 0.0 4.0 0.00 0.00 0.00 71 1012.1
20260902075525 58 332 2.0 4.0 0.00 0.00 0.00 70 1012.2
20260902075026 58 1 1.0 4.0 0.00 0.00 0.00 71 1012.1
20260902074543 58 0 1.0 3.0 0.00 0.00 0.00 71 1012.2
20260902074025 59 0 0.0 3.0 0.00 0.00 0.00 70 1012.1
20260902073523 59 0 0.0 3.0 0.00 0.00 0.00 70 1012.0
20260902073054 59 12 1.0 3.0 0.00 0.00 0.00 70 1011.8
20260902072524 59 34 1.0 3.0 0.00 0.00 0.00 69 1011.9
20260902072023 60 0 0.0 3.0 0.00 0.00 0.00 69 1012.1
20260902071545 60 333 1.0 3.0 0.00 0.00 0.00 69 1012.1
20260902071026 60 168 0.0 2.0 0.00 0.00 0.00 67 1012.2
20260902070524 61 0 0.0 4.0 0.00 0.00 0.00 67 1012.5
20260902070048 61 0 0.0 4.0 0.00 0.00 0.00 67 1012.9
20260902065529 61 168 1.0 4.0 0.00 0.00 0.00 67 1012.8
20260902065023 62 338 1.0 3.0 0.00 0.00 0.00 67 1012.4
20260902064545 62 198 0.0 4.0 0.00 0.00 0.00 65 1012.5
20260902064023 62 0 1.0 6.0 0.00 0.00 0.00 66 1012.5
20260902063523 62 0 1.0 6.0 0.00 0.00 0.00 66 1012.8
20260902063046 62 186 1.0 3.0 0.00 0.00 0.00 66 1013.1
20260902062526 61 222 0.0 4.0 0.00 0.00 0.00 67 1012.8
20260902062024 61 0 1.0 4.0 0.00 0.00 0.00 68 1012.7
20260902061548 60 201 2.0 4.0 0.00 0.00 0.00 70 1012.7
20260902061024 60 230 2.0 4.0 0.00 0.00 0.00 70 1012.5
20260902060523 59 213 2.0 4.0 0.00 0.00 0.00 72 1012.5
20260902060104 59 179 2.0 5.0 0.00 0.00 0.00 72 1012.5
20260902055523 59 199 2.0 5.0 0.00 0.00 0.00 73 1012.4
20260902055025 59 188 1.0 4.0 0.00 0.00 0.00 72 1012.5
20260902054555 60 0 0.0 0.0 0.00 0.00 0.00 72 1012.4
20260902054033 60 0 0.0 0.0 0.00 0.00 0.00 71 1012.3
20260902053530 60 0 0.0 0.0 0.00 0.00 0.00 71 1012.2
20260902053057 60 0 0.0 0.0 0.00 0.00 0.00 71 1012.2
20260902052523 60 0 0.0 0.0 0.00 0.00 0.00 70 1012.3
20260902052023 61 0 0.0 0.0 0.00 0.00 0.00 69 1012.3
20260902051543 61 0 0.0 0.0 0.00 0.00 0.00 68 1012.2
20260902051025 62 0 0.0 0.0 0.00 0.00 0.00 68 1012.1
20260902050526 62 0 0.0 0.0 0.00 0.00 0.00 67 1012.1
20260902050059 62 0 0.0 0.0 0.00 0.00 0.00 67 1012.1
20260902045524 62 0 0.0 0.0 0.00 0.00 0.00 66 1012.2
20260902045024 63 0 0.0 2.0 0.00 0.00 0.00 65 1012.2
20260902044550 63 0 0.0 2.0 0.00 0.00 0.00 64 1012.2
20260902044029 63 238 1.0 2.0 0.00 0.00 0.00 63 1012.2
20260902043523 63 0 0.0 2.0 0.00 0.00 0.00 63 1012.2
20260902043053 64 0 0.0 3.0 0.00 0.00 0.00 63 1012.2
20260902042526 64 0 1.0 3.0 0.00 0.00 0.00 62 1012.2
20260902042025 64 272 1.0 3.0 0.00 0.00 0.00 61 1012.2
20260902041543 64 0 0.0 0.0 0.00 0.00 0.00 60 1012.1
20260902041025 64 0 0.0 0.0 0.00 0.00 0.00 59 1012.2
20260902040528 64 0 0.0 0.0 0.00 0.00 0.00 59 1012.3
20260902040055 65 0 0.0 0.0 0.00 0.00 0.00 60 1012.3
20260902035526 65 0 0.0 2.0 0.00 0.00 0.00 59 1012.2
20260902035029 66 0 0.0 2.0 0.00 0.00 0.00 58 1012.2
20260902034546 66 0 0.0 2.0 0.00 0.00 0.00 55 1012.1
20260902034028 66 0 0.0 2.0 0.00 0.00 0.00 57 1012.1
20260902033527 66 0 1.0 2.0 0.00 0.00 0.00 56 1012.0
20260902033046 66 241 0.0 1.0 0.00 0.00 0.00 55 1012.0
20260902032525 66 0 0.0 2.0 0.00 0.00 0.00 53 1011.9
20260902032027 67 0 0.0 2.0 0.00 0.00 0.00 52 1011.9
20260902031547 67 241 0.0 1.0 0.00 0.00 0.00 50 1011.7
20260902031029 68 0 0.0 0.0 0.00 0.00 0.00 49 1011.7
20260902030525 68 0 0.0 0.0 0.00 0.00 0.00 48 1011.7
20260902030053 69 0 0.0 0.0 0.00 0.00 0.00 48 1011.7
20260902025527 69 0 0.0 0.0 0.00 0.00 0.00 47 1011.5
20260902025027 69 0 0.0 2.0 0.00 0.00 0.00 47 1011.5
20260902024546 70 0 0.0 2.0 0.00 0.00 0.00 46 1011.5
20260902024026 70 241 0.0 2.0 0.00 0.00 0.00 47 1011.5
20260902023530 70 0 0.0 0.0 0.00 0.00 0.00 45 1011.6
20260902023048 70 0 0.0 0.0 0.00 0.00 0.00 45 1011.5
20260902022526 71 0 0.0 0.0 0.00 0.00 0.00 46 1011.5
20260902022033 71 0 0.0 0.0 0.00 0.00 0.00 46 1011.5
20260902021544 71 0 0.0 0.0 0.00 0.00 0.00 49 1011.5
20260902021025 71 0 0.0 0.0 0.00 0.00 0.00 46 1011.3
20260902020526 72 0 0.0 0.0 0.00 0.00 0.00 47 1011.3
20260902020043 73 0 0.0 0.0 0.00 0.00 0.00 46 1011.3
20260902015527 73 0 0.0 0.0 0.00 0.00 0.00 45 1011.3
20260902015026 74 0 0.0 0.0 0.00 0.00 0.00 45 1011.3
20260902014547 74 0 0.0 0.0 0.00 0.00 0.00 44 1011.3
20260902014031 75 0 0.0 0.0 0.00 0.00 0.00 43 1011.2
20260902013527 76 0 0.0 0.0 0.00 0.00 0.00 42 1011.1
20260902013048 77 0 0.0 0.0 0.00 0.00 0.00 41 1011.2
20260902012530 77 0 0.0 0.0 0.00 0.00 0.00 41 1011.2
20260902012023 78 0 0.0 0.0 0.00 0.00 0.00 41 1011.3
20260902011557 78 0 0.0 0.0 0.00 0.00 0.00 41 1011.3
20260902011024 79 0 0.0 0.0 0.00 0.00 0.00 41 1011.3
20260902010524 79 0 0.0 0.0 0.00 0.00 0.00 40 1011.3
20260902010043 79 0 0.0 1.0 0.00 0.00 0.00 40 1011.3
20260902005527 78 0 0.0 1.0 0.00 0.00 0.00 42 1011.3
20260902005025 78 0 0.0 2.0 0.00 0.00 0.00 44 1011.4
20260902004547 78 0 0.0 2.0 0.00 0.00 0.00 43 1011.4
20260902004032 78 0 0.0 3.0 0.00 0.00 0.00 42 1011.3
20260902003523 78 0 1.0 4.0 0.00 0.00 0.00 42 1011.3
20260902003044 78 238 1.0 4.0 0.00 0.00 0.00 42 1011.3
20260902002523 78 0 1.0 2.0 0.00 0.00 0.00 41 1011.2
20260902002023 78 0 0.0 3.0 0.00 0.00 0.00 43 1011.3
20260902001549 78 0 0.0 4.0 0.00 0.00 0.00 45 1011.4
20260902001025 77 0 0.0 4.0 0.00 0.00 0.00 44 1011.4
20260902000525 77 262 2.0 6.0 0.00 0.00 0.00 40 1011.5
20260902000044 78 354 1.0 6.0 0.00 0.00 0.00 41 1011.4
20260901235527 79 269 1.0 8.0 0.00 0.00 0.00 42 1011.4
20260901235025 79 323 2.0 8.0 0.00 0.00 0.00 39 1011.5
20260901234548 80 266 3.0 8.0 0.00 0.00 0.00 40 1011.4
20260901234024 80 294 1.0 4.0 0.00 0.00 0.00 37 1011.6
20260901233528 80 252 2.0 5.0 0.00 0.00 0.00 39 1011.6
20260901233050 80 244 2.0 5.0 0.00 0.00 0.00 38 1011.6
20260901232524 80 198 1.0 6.0 0.00 0.00 0.00 36 1011.6
20260901232024 80 233 1.0 7.0 0.00 0.00 0.00 37 1011.7
20260901231607 80 230 2.0 7.0 0.00 0.00 0.00 35 1011.6
20260901231025 80 226 2.0 7.0 0.00 0.00 0.00 34 1011.6
20260901230526 80 193 1.0 4.0 0.00 0.00 0.00 35 1011.7
20260901230056 80 227 1.0 4.0 0.00 0.00 0.00 35 1011.8
20260901225524 80 228 0.0 4.0 0.00 0.00 0.00 37 1011.8
20260901225024 81 225 1.0 6.0 0.00 0.00 0.00 33 1011.6
20260901224546 81 176 3.0 6.0 0.00 0.00 0.00 34 1011.7
20260901224024 81 233 2.0 5.0 0.00 0.00 0.00 38 1011.6
20260901223524 81 220 2.0 5.0 0.00 0.00 0.00 33 1011.6
20260901223047 81 187 1.0 8.0 0.00 0.00 0.00 35 1011.6
20260901222525 82 235 4.0 8.0 0.00 0.00 0.00 31 1011.6
20260901222024 82 213 2.0 8.0 0.00 0.00 0.00 34 1011.6
20260901221608 83 233 2.0 8.0 0.00 0.00 0.00 32 1011.6
20260901221028 83 185 1.0 7.0 0.00 0.00 0.00 31 1011.6
20260901220528 84 173 3.0 7.0 0.00 0.00 0.00 29 1011.6
20260901220115 84 0 1.0 6.0 0.00 0.00 0.00 30 1011.6
20260901215527 84 204 3.0 6.0 0.00 0.00 0.00 30 1011.7
20260901215025 84 0 0.0 7.0 0.00 0.00 0.00 28 1011.7
20260901214550 84 218 1.0 7.0 0.00 0.00 0.00 29 1011.8
20260901214028 84 186 2.0 6.0 0.00 0.00 0.00 33 1011.9
20260901213525 84 163 1.0 3.0 0.00 0.00 0.00 35 1011.9
20260901213105 84 0 1.0 4.0 0.00 0.00 0.00 37 1011.9
20260901212527 83 0 1.0 4.0 0.00 0.00 0.00 35 1012.1
20260901212029 83 0 1.0 6.0 0.00 0.00 0.00 32 1012.0
20260901211546 83 0 3.0 6.0 0.00 0.00 0.00 31 1012.0
20260901211027 82 279 3.0 8.0 0.00 0.00 0.00 30 1012.1
20260901210530 82 203 1.0 8.0 0.00 0.00 0.00 33 1012.2
20260901210044 82 168 3.0 8.0 0.00 0.00 0.00 32 1012.2
20260901205527 82 193 1.0 4.0 0.00 0.00 0.00 30 1012.1
20260901205029 82 326 1.0 5.0 0.00 0.00 0.00 32 1012.3
20260901204601 82 47 2.0 5.0 0.00 0.00 0.00 30 1012.5
20260901204027 82 0 0.0 3.0 0.00 0.00 0.00 32 1012.6
20260901203528 81 193 1.0 7.0 0.00 0.00 0.00 32 1012.5
20260901203045 81 131 1.0 7.0 0.00 0.00 0.00 35 1012.7
20260901202527 81 200 2.0 5.0 0.00 0.00 0.00 34 1012.8
20260901202028 81 290 2.0 5.0 0.00 0.00 0.00 33 1012.9
20260901201546 81 37 1.0 5.0 0.00 0.00 0.00 37 1013.0
20260901201027 81 75 1.0 5.0 0.00 0.00 0.00 37 1013.0
20260901200530 81 124 1.0 5.0 0.00 0.00 0.00 34 1013.1
20260901200114 81 210 1.0 5.0 0.00 0.00 0.00 36 1013.1
20260901195524 80 214 1.0 5.0 0.00 0.00 0.00 35 1013.1
20260901195026 80 217 3.0 5.0 0.00 0.00 0.00 34 1013.1
20260901194606 80 202 2.0 8.0 0.00 0.00 0.00 37 1013.1
20260901194030 80 0 2.0 8.0 0.00 0.00 0.00 35 1013.1
20260901193528 80 161 2.0 5.0 0.00 0.00 0.00 44 1013.2
20260901193050 80 148 2.0 6.0 0.00 0.00 0.00 39 1013.3
20260901192530 79 261 3.0 6.0 0.00 0.00 0.00 41 1013.2
20260901192026 79 197 1.0 6.0 0.00 0.00 0.00 41 1013.3
20260901191628 79 249 2.0 5.0 0.00 0.00 0.00 40 1013.4
20260901191025 79 185 2.0 7.0 0.00 0.00 0.00 39 1013.5
20260901190525 79 184 2.0 7.0 0.00 0.00 0.00 40 1013.6
20260901190057 79 207 3.0 6.0 0.00 0.00 0.00 43 1013.6
20260901185528 78 265 2.0 6.0 0.00 0.00 0.00 45 1013.7
20260901185025 78 271 2.0 7.0 0.00 0.00 0.00 44 1013.7
20260901184544 78 233 3.0 7.0 0.00 0.00 0.00 47 1013.8
20260901184025 78 288 2.0 7.0 0.00 0.00 0.00 49 1013.7
20260901183528 77 265 1.0 4.0 0.00 0.00 0.00 45 1013.9
20260901183056 77 0 1.0 4.0 0.00 0.00 0.00 47 1014.0
20260901182525 77 262 1.0 5.0 0.00 0.00 0.00 45 1013.9
20260901182028 77 274 1.0 6.0 0.00 0.00 0.00 43 1014.0
20260901181600 78 191 2.0 9.0 0.00 0.00 0.00 42 1014.0
20260901181027 78 195 3.0 9.0 0.00 0.00 0.00 44 1014.1
20260901180525 78 221 4.0 9.0 0.00 0.00 0.00 44 1014.2
20260901180045 78 0 4.0 9.0 0.00 0.00 0.00 43 1014.3
20260901175530 78 194 3.0 9.0 0.00 0.00 0.00 46 1014.3
20260901175024 78 146 4.0 11.0 0.00 0.00 0.00 43 1014.4
20260901174546 78 110 5.0 11.0 0.00 0.00 0.00 46 1014.4
20260901174027 77 207 3.0 11.0 0.00 0.00 0.00 45 1014.3
20260901173532 76 231 5.0 11.0 0.00 0.00 0.00 47 1014.4
20260901173052 76 155 5.0 10.0 0.00 0.00 0.00 46 1014.6
20260901172525 75 141 4.0 9.0 0.00 0.00 0.00 49 1014.6
20260901172026 74 131 2.0 7.0 0.00 0.00 0.00 53 1014.6
20260901171558 73 203 1.0 4.0 0.00 0.00 0.00 47 1014.6
20260901171024 72 241 1.0 3.0 0.00 0.00 0.00 46 1014.7
20260901170526 72 278 1.0 4.0 0.00 0.00 0.00 48 1014.7
20260901170057 72 229 1.0 4.0 0.00 0.00 0.00 46 1014.8
20260901165525 71 0 1.0 4.0 0.00 0.00 0.00 45 1014.7
20260901165024 71 198 1.0 4.0 0.00 0.00 0.00 45 1014.9
20260901164546 71 191 1.0 4.0 0.00 0.00 0.00 43 1014.8
20260901164027 71 185 1.0 4.0 0.00 0.00 0.00 47 1015.0
20260901163527 71 225 0.0 4.0 0.00 0.00 0.00 46 1015.0
20260901163054 71 0 1.0 5.0 0.00 0.00 0.00 41 1014.9
20260901162525 71 233 1.0 5.0 0.00 0.00 0.00 46 1015.0
20260901162029 70 161 1.0 5.0 0.00 0.00 0.00 44 1015.0
20260901161552 69 204 2.0 5.0 0.00 0.00 0.00 42 1015.1
20260901161026 69 198 2.0 5.0 0.00 0.00 0.00 42 1015.0
20260901160525 69 224 2.0 5.0 0.00 0.00 0.00 42 1015.0
20260901160105 68 206 1.0 4.0 0.00 0.00 0.00 43 1015.1
20260901155527 68 197 1.0 4.0 0.00 0.00 0.00 45 1015.2
20260901155028 67 255 2.0 4.0 0.00 0.00 0.00 43 1015.2
20260901154545 67 260 0.0 2.0 0.00 0.00 0.00 42 1015.1
20260901154025 67 0 0.0 2.0 0.00 0.00 0.00 43 1015.2
20260901153526 66 0 0.0 2.0 0.00 0.00 0.00 42 1015.3
20260901153058 65 0 0.0 0.0 0.00 0.00 0.00 49 1015.4
20260901152529 64 0 0.0 1.0 0.00 0.00 0.00 53 1015.3
20260901152025 64 0 0.0 1.0 0.00 0.00 0.00 52 1015.3
20260901151546 63 203 0.0 2.0 0.00 0.00 0.00 53 1015.4
20260901151026 62 0 0.0 3.0 0.00 0.00 0.00 59 1015.3
20260901150530 62 203 1.0 3.0 0.00 0.00 0.00 59 1015.3
20260901150058 61 203 2.0 3.0 0.00 0.00 0.00 54 1015.2
20260901145527 61 191 1.0 3.0 0.00 0.00 0.00 56 1015.2
20260901145027 60 0 0.0 3.0 0.00 0.00 0.00 61 1015.2
20260901144549 59 0 0.0 3.0 0.00 0.00 0.00 59 1015.4
20260901144025 59 211 1.0 4.0 0.00 0.00 0.00 60 1015.5
20260901143527 58 212 1.0 4.0 0.00 0.00 0.00 58 1015.4
20260901143107 58 275 2.0 3.0 0.00 0.00 0.00 58 1015.4
20260901142525 57 262 1.0 3.0 0.00 0.00 0.00 59 1015.4
20260901142024 56 272 0.0 5.0 0.00 0.00 0.00 62 1015.4
20260901141545 56 0 0.0 5.0 0.00 0.00 0.00 64 1015.3
20260901141025 55 307 0.0 3.0 0.00 0.00 0.00 68 1015.3
20260901140526 54 0 0.0 4.0 0.00 0.00 0.00 67 1015.2
20260901140128 53 291 1.0 4.0 0.00 0.00 0.00 65 1015.2
20260901135529 53 259 2.0 4.0 0.00 0.00 0.00 65 1015.2
20260901135028 52 0 0.0 2.0 0.00 0.00 0.00 66 1015.2
20260901134549 52 0 0.0 3.0 0.00 0.00 0.00 66 1015.2
20260901134031 51 0 1.0 3.0 0.00 0.00 0.00 66 1015.1
20260901133527 51 271 0.0 2.0 0.00 0.00 0.00 68 1015.0
20260901133046 51 271 0.0 2.0 0.00 0.00 0.00 70 1015.1
20260901132529 51 295 0.0 2.0 0.00 0.00 0.00 73 1015.0
20260901132031 51 0 0.0 3.0 0.00 0.00 0.00 72 1014.8
20260901131546 51 0 0.0 3.0 0.00 0.00 0.00 72 1014.9
20260901131028 51 295 1.0 3.0 0.00 0.00 0.00 69 1015.0
20260901130530 51 0 0.0 2.0 0.00 0.00 0.00 69 1015.0
20260901130051 51 0 1.0 3.0 0.00 0.00 0.00 69 1014.8
20260901125524 51 0 0.0 3.0 0.00 0.00 0.00 71 1014.8
20260901125025 51 293 0.0 3.0 0.00 0.00 0.00 70 1014.9
20260901124547 51 0 0.0 3.0 0.00 0.00 0.00 70 1014.8
20260901124030 51 295 0.0 3.0 0.00 0.00 0.00 70 1014.9
20260901123529 51 0 0.0 0.0 0.00 0.00 0.00 68 1015.2
20260901123045 51 0 0.0 0.0 0.00 0.00 0.00 66 1015.1
20260901122526 51 0 0.0 0.0 0.00 0.00 0.00 66 1015.1
20260901122027 51 0 0.0 2.0 0.00 0.00 0.00 67 1015.0
20260901121543 51 0 0.0 2.0 0.00 0.00 0.00 68 1015.0
20260901121029 51 0 0.0 2.0 0.00 0.00 0.00 69 1015.1
20260901120526 51 154 0.0 3.0 0.00 0.00 0.00 69 1015.1
20260901120052 51 0 0.0 5.0 0.00 0.00 0.00 70 1015.1
20260901115529 51 206 2.0 5.0 0.00 0.00 0.00 69 1015.1
20260901115024 51 216 0.0 2.0 0.00 0.00 0.00 69 1015.2
20260901114550 51 216 0.0 3.0 0.00 0.00 0.00 68 1015.1
20260901114028 51 216 1.0 3.0 0.00 0.00 0.00 68 1015.2
20260901113532 51 208 0.0 3.0 0.00 0.00 0.00 69 1015.1
20260901113045 51 209 0.0 3.0 0.00 0.00 0.00 69 1014.9
20260901112526 51 0 0.0 3.0 0.00 0.00 0.00 68 1014.8
20260901112025 50 219 1.0 3.0 0.00 0.00 0.00 68 1014.7
20260901111545 50 198 1.0 3.0 0.00 0.00 0.00 69 1014.9
20260901111028 50 205 1.0 4.0 0.00 0.00 0.00 69 1014.9
20260901110526 50 205 1.0 4.0 0.00 0.00 0.00 69 1014.8
20260901110052 50 207 1.0 4.0 0.00 0.00 0.00 69 1014.9
20260901105529 50 214 1.0 3.0 0.00 0.00 0.00 69 1014.8
20260901105026 50 204 0.0 3.0 0.00 0.00 0.00 70 1014.8
20260901104546 50 204 1.0 3.0 0.00 0.00 0.00 70 1014.7
20260901104028 50 203 1.0 4.0 0.00 0.00 0.00 71 1014.6
20260901103528 50 0 1.0 4.0 0.00 0.00 0.00 71 1014.8
20260901103044 50 0 0.0 3.0 0.00 0.00 0.00 71 1014.7